Regional Weather Roundup
Issued by NWS Newport/Morehead, NC

Current Version | Previous Version | Text Only | Print | Product List | Glossary Off
Versions: 1 2 3 4 5 6 7 8 9 10 11 12 13 14 15 16 17 18 19 20 21 22 23 24 25 26 27 28 29 30 31 32 33 34 35 36 37 38 39 40 41 42 43 44 45 46 47 48 49 50
000 ASUS42 KMHX 201410 RWRMHX WEATHER ROUNDUP FOR EASTERN NORTH CAROLINA NATIONAL WEATHER SERVICE NEWPORT/MOREHEAD CITY NC 900 AM EST SAT DEC 20 2014 NOTE: "FAIR" INDICATES FEW OR NO CLOUDS BELOW 12,000 FEET WITH NO SIGNIFICANT WEATHER AND/OR OBSTRUCTIONS TO VISIBILITY NCZ015>017-031-032-045>047-102-103-201500- NORTH COAST CITY SKY/WX TMP DP RH WIND PRES REMARKS EDENTON N/A 35 31 84 N5 30.31S ELIZABETH CITY CLOUDY 40 30 67 NW5 30.32R KITTY HAWK CLOUDY 41 35 79 NW3 30.29R MANTEO CLOUDY 41 35 80 N6 30.31R $$ NCZ045>047-081-094-103-104-201500- CENTRAL COAST CITY SKY/WX TMP DP RH WIND PRES REMARKS FRISCO CLOUDY 43 35 73 VRB5 30.29R SWANQUARTER N/A 39 N/A N/A NE6G13 30.24S $$ NCZ095-097-098-100-101-201500- SOUTHERN COAST CITY SKY/WX TMP DP RH WIND PRES REMARKS BEAUFORT CLOUDY 43 39 86 NE7 30.27R CEDAR ISLAND N/A 43 N/A N/A N8G15 30.30S JACKSONVILLE LGT RAIN 41 36 82 NE8 30.26S PINEY ISLAND CLOUDY 46 36 68 NE9 30.27R WILMINGTON LGT RAIN 43 40 89 NE8 30.24R $$ NCZ011>013-027>030-043-044-078>080-089-090>093-098-201500- COASTAL PLAIN CITY SKY/WX TMP DP RH WIND PRES REMARKS AHOSKIE PTSUNNY 32 27 80 N3 30.32S CLINTON LGT RAIN 39 37 95 NE5 30.28R ELIZABETHTOWN LGT RAIN 40 37 86 CALM 30.24S GOLDSBORO MIX PCPN 37 36 93 NE3 30.27R GREENVILLE CLOUDY 36 32 87 NE6 30.30S HAVELOCK LGT RAIN 42 37 82 NE10 30.28R KENANSVILLE DRIZZLE 38 36 94 CALM 30.28S KINSTON CLOUDY 37 32 81 NE7 30.29S NEW BERN LGT RAIN 41 35 79 N6 30.29R RICHLANDS CLOUDY 39 34 81 NE8 30.27S ROCKY MOUNT CLOUDY 35 27 72 NE7 30.30S WASHINGTON CLOUDY 35 31 85 NE7 30.30S WHITEVILLE DRIZZLE 42 39 89 NE7 30.23R $$ AMZ130-135-150-152-154-156-158-170-250-252-270-ANZ085-086-088-633-658-670-201500- MARINE OBSERVATIONS STATION/POSITION TIME TEMP WIND PRES WAVE SWELL AIR SEA DIR/SP/G HT/PER HT/PER (UTC) (F) (DEG/KT/KT) (MB) (FT/S) (FT/S) CHESAPEAKE LIGHT 1300 38 10/ 11/ 12 1025.8 64 E VA BEACH 1400 43 54 350/ 8/ 12 1024.8 2/ 5 2/ 5 DUCK 1400 40 46 310/ 10/ 11 1025.2 2 E DUCK 1400 46 N/A 2/ 5 10 NE DUCK 1400 52 N/A 3/ 5 OREGON INLET 1400 42 49 310/ 5/ 7 1025.7 13E OREGON INLT 1400 52 N/A 3/ 6 HATTERAS CG 1400 44 51 10/ 11/ 12 1025.4 DIAMOND BUOY 1400 48 1025.3 3/ 7 17 S OCRACOKE NOT AVBL CAPE LOOKOUT 1300 45 20/ 10/ 13 1023.8 BEAUFORT LAB 1400 43 53 30/ 6/ 8 1023.6 30 SE NEW RIVER 1400 52 61 50/ 14/ 19 1023.9 2/ 4 2/11 5 SE WRIGHTSVLE NOT AVBL 225 S CAPE HAT 1314 66 72 80/ 12/ 16 1022.0 3/10 2/10 41 SE CHARLESTON 1400 63 69 60/ 17/ 19 1020.7 4/ 5 2/11 $$

USA.gov is the U.S. government's official web portal to all federal, state and local government web resources and services.